EUTELSAT 7B

Last updated on Nov. 15, 2019, 4:20 a.m. UTC

1 39163U 13022A   19317.83924819  .00000062  00000-0  00000-0 0  9993
2 39163   0.0598  49.9694 0002999 264.9221  46.9160  1.00272275 23830
UTC
Height (km)
Latitude
Longitude
Inclination
Orbital Period
UTC large
Height (km)
Speed (km/s)
/
Latitude / Longitude
Inclination (degrees)
Orbital Period (minutes)
Azimuth
Elevation
Range (km)
Doppler Factor
iOS Compass Heading
iOS Angle

Next 30 passes for location: Hong Kong

Rise time Rise Azimuth (degrees) Set time Set Azimuth (degrees) Duration Max altitude (degrees)

No matching passes for this satellites